User: anonymous   Login
Location: Arlington
(40.6323°N, 74.1651°W)
Time: 11:33:06
(UTC+00:00)
Language:

NOAA 11 - Orbit

View from above orbital plane
View from above orbital plane
View from above satellite
View from above satellite

Ground track
Ground track

The orbit data is extracted from the following two-line orbital elements,

1 19531U 88089A   20217.46513803 -.00000021 +00000-0 +10127-4 0  9993
2 19531 098.4115 234.1749 0010944 351.4618 008.6369 14.15258028644355
Epoch (UTC): 04 August 2020 11:09:47
Eccentricity: 0.0010944
inclination: 98.4115°
perigee height: 833 km
apogee height: 849 km
right ascension of ascending node: 234.1749°
argument of perigee: 351.4618°
revolutions per day: 14.15258028
mean anomaly at epoch: 8.6369°
orbit number at epoch: 64435

The dashed part of the orbit path shows where the satellite is in the earth's shadow,  

DLR